Regional Weather Roundup
Issued by NWS

Home | Current Version | Previous Version | Text Only | Print | Product List | Glossary Off
Versions: 1 2 3 4 5 6 7 8 9 10 11 12 13 14 15 16 17 18 19 20 21 22 23 24 25 26 27 28 29 30 31 32 33 34 35 36 37 38 39 40 41 42 43 44 45 46 47 48 49 50

000
ASUS43 KLSX 061759
RWRMO

WEATHER SUMMARY FOR MISSOURI
NATIONAL WEATHER SERVICE SPRINGFIELD MO
1200 PM CST FRI MAR 06 2015

NOTE: "FAIR" INDICATES FEW OR NO CLOUDS BELOW 12,000 FEET WITH NO
       SIGNIFICANT WEATHER AND/OR OBSTRUCTIONS TO VISIBILITY.
       CURRENT SKY AND/OR WEATHER CONDITIONS ARE NOT AVAILABLE FOR
       CHILLICOTHE AND FARMINGTON.

MOZ001>031-035>038-043-044-053-054-061900-
...NORTHERN AND WESTERN MISSOURI...

CITY           SKY/WX    TMP DP  RH WIND       PRES   REMARKS
KANSAS CTY INT FAIR      50  24  36 SW14      30.29S
6HR MIN TEMP:  28; 6HR MAX TEMP:  50;

KANSAS C DTWN  FAIR      52  23  32 W9        30.30F
6HR MIN TEMP:  32; 6HR MAX TEMP:  52;

LEE`S SUMMIT   FAIR      48  23  37 SW15      30.31S
6HR MIN TEMP:  25; 6HR MAX TEMP:  48;

ST JOSEPH      FAIR      50  24  36 SW14      30.29S
6HR MIN TEMP:  25; 6HR MAX TEMP:  50;

CHILLICOTHE      N/A     49  24  37 W8        30.28S
6HR MIN TEMP:  25; 6HR MAX TEMP:  49;

KIRKSVILLE     FAIR      45  22  40 SW13G21   30.25S
6HR MIN TEMP:  20; 6HR MAX TEMP:  45;


$$
MOZ066>068-077>081-088>096-101>105-061900-
...SOUTHWEST MISSOURI...

CITY           SKY/WX    TMP DP  RH WIND       PRES   REMARKS
SPRINGFIELD    FAIR      44  24  45 SW18      30.41F
6HR MIN TEMP:  21; 6HR MAX TEMP:  45;

JOPLIN         FAIR      46  25  43 SW20      30.42F
6HR MIN TEMP:  29; 6HR MAX TEMP:  47;


$$
MOZ032>034-039>042-045>050-055>058-069>072-061900-
...CENTRAL MISSOURI...

CITY           SKY/WX    TMP DP  RH WIND       PRES   REMARKS
COLUMBIA       FAIR      47  26  44 SW18G25   30.32F
6HR MIN TEMP:  18; 6HR MAX TEMP:  47;

JEFFERSON CITY FAIR      46  21  37 SW13      30.35F
6HR MIN TEMP:  16; 6HR MAX TEMP:  46;

ROLLA          FAIR      42  22  44 SW21G28   30.35F
6HR MIN TEMP:  19; 6HR MAX TEMP:  42;

SEDALIA        FAIR      46  28  49 SW18G28   30.33F
6HR MIN TEMP:  26; 6HR MAX TEMP:  46;

OSAGE BEACH    FAIR      46  23  39 SW14G24   30.37F

$$
MOZ051-052-059>065-061900-
...EAST CENTRAL MISSOURI...

CITY           SKY/WX    TMP DP  RH WIND       PRES   REMARKS
ST LOUIS INTL  FAIR      37  16  42 S16G22    30.39F WCI  28
6HR MIN TEMP:  17; 6HR MAX TEMP:  37;

SPIRIT OF STL  FAIR      41  18  39 SW12G20   30.37F
6HR MIN TEMP:  14; 6HR MAX TEMP:  41;

ST CHARLES     FAIR      34  20  56 SE14      30.38F WCI  25
6HR MIN TEMP:   8; 6HR MAX TEMP:  34;


$$
MOZ072>076-082>087-097>100-106>115-061900-
...SOUTH CENTRAL AND SOUTHEAST MISSOURI...

CITY           SKY/WX    TMP DP  RH WIND       PRES   REMARKS
CAPE GIRARDEAU FLURRIES  23  10  57 S12       30.57F WCI  12
6HR MIN TEMP:  -8; 6HR MAX TEMP:  23; 6HR PCP: TRACE;

FARMINGTON     FAIR      32  16  51 SW12      30.47F WCI  23
6HR MIN TEMP:   9; 6HR MAX TEMP:  32;

POPLAR BLUFF   FAIR      25  12  58 S7        30.56F WCI  17
6HR MIN TEMP:   9; 6HR MAX TEMP:  25;

WEST PLAINS    FAIR      34  16  47 S10       30.46F WCI  26
6HR MIN TEMP:  15; 6HR MAX TEMP:  35;


$$


USA.gov is the U.S. government's official web portal to all federal, state and local government web resources and services.